Location: Most
(50.5133°N, 13.6207°E)
Time: 12:38:01
(UTC+01:00)

UNHA 3 R/B - Pass Details

Date: 26 September 2020
Orbit: 479 x 556 km, 97.4° (Epoch: 27 October)

Event Time Altitude Azimuth Distance (km) Brightness Sun altitude
Rises 04:23:44 0° 26° (NNE) 2,638 9.7 -24.4°
Reaches altitude 10° 04:26:18 10° 45° (NE) 1,761 8.9 -24.0°
Maximum altitude 04:29:05 19° 92° (E) 1,286 7.8 -23.6°
Drops below altitude 10° 04:31:55 10° 139° (SE) 1,783 8.0 -23.2°
Enters shadow 04:34:07 - 156° (SSE) 2,536 8.7 -22.9°
